sat.trackr.live / text

‹ back to catalog

AETHER-10

NORAD 67381 · 2026-004U

PAYLOAD ACTIVE UNKNOWN

§ Identity

Operator
Country
CA
Launch date
2026-01-11
Launch site
AFWTR
Launch vehicle
Mass (kg)
RCS (m²)

External: N2YO · Heavens-Above · Gunter

§ Orbital elements

Epoch: 2026-09-20T23:28:48.854208Z

Period
96.91 min
Inclination
97.8115°
Eccentricity
0.0001053
Mean motion
14.85920614 rev/d
Perigee alt
610.0 km
Apogee alt
611.4 km
Semi-major
6,988.8 km
B*
4.9848e-5
RAAN
260.9094°
Arg perigee
163.6454°
Mean anomaly
196.4796°
Rev number
3,751

§ Raw data

AETHER-101 67381U 26004U   26263.97834322  .00000382  00000+0  49848-4 0  99932 67381  97.8115 260.9094 0001053 163.6454 196.4796 14.85920614 37514

JSON: /api/v1/satellites/67381 · /tle

For live sub-satellite position, see the globe view (requires WebGL).

§ Visibility from observer

Set your observer location to see the next 7 days of passes ≥ 10°. The values pass through the URL so the page stays shareable.

No JS? Fill the form by hand. The geolocation button needs JavaScript.